Wind_Speed
16 10 11 13 15 19 20 22 23 21 20 19 17 17 18 17 16 17 19 21 21 19 20 25 23 22 22 23 23 24 26 23 25 23 25 26 25 23 25 27 28 26 25 24 24 28 28 27 27 27 27 27 27 28 26 27 28 25 23 22 22 24 26 24 24 24 23 21 19 18 16 15 14 13 13 15 14 14 14 12 11 9 8 9 7 8
15 11 13 19 20 22 21 22 24 23 23 21 18 17 17 17 16 18 20 23 22 17 17 22 23 23 22 21 21 24 24 19 20 18 23 27 26 25 25 27 28 25 27 26 26 30 28 29 29 26 28 28 28 29 28 29 30 26 22 22 22 25 27 26 25 23 23 21 19 18 16 14 15 15 14 15 15 14 12 9 9 8 8 8 9 10
12 13 19 23 21 21 21 22 24 25 24 20 16 15 14 14 15 17 20 22 21 13 13 20 21 19 21 21 19 22 21 21 28 24 26 29 27 27 26 26 28 26 29 29 29 31 29 30 30 28 29 29 28 30 30 30 28 23 21 21 23 26 27 26 25 23 22 21 20 18 15 15 17 17 15 14 14 13 12 10 9 9 9 9 10 10
11 14 21 22 20 21 23 23 24 23 20 18 16 14 14 16 16 14 18 22 21 16 14 17 16 14 17 21 19 21 23 25 31 24 28 30 27 27 27 26 29 28 31 31 31 33 31 30 30 29 31 30 29 30 31 29 26 24 21 21 23 25 27 26 24 23 22 21 19 16 16 18 18 17 16 13 12 13 13 12 11 10 10 9 10 10
15 18 20 21 22 23 23 23 23 19 15 19 21 16 15 19 20 15 16 20 19 19 18 15 12 11 15 20 17 19 22 23 23 19 24 25 26 27 28 28 28 30 35 36 34 33 32 32 31 29 30 30 29 30 31 29 27 25 22 20 22 24 26 26 25 23 22 22 20 18 19 20 16 14 15 14 13 13 14 13 12 10 9 10 10 11
17 22 21 20 23 24 23 21 22 19 13 17 23 23 20 20 23 20 19 19 14 15 18 16 11 9 14 20 18 16 17 20 18 17 19 23 26 27 29 29 27 30 34 34 35 34 32 32 30 28 28 30 31 29 30 30 28 25 22 21 21 24 26 26 25 24 23 23 22 21 21 18 15 14 15 15 14 15 14 13 12 11 11 12 12 11
12 21 23 20 22 25 23 19 22 23 15 13 19 25 26 24 23 23 23 19 11 11 16 17 11 7 10 17 19 18 18 21 20 17 20 24 27 28 28 29 28 33 33 30 33 33 32 31 29 29 28 30 32 28 29 30 27 24 24 23 22 24 25 25 26 25 24 24 23 21 19 16 15 16 17 16 15 16 16 13 13 13 13 14 14 13
12 19 22 22 22 21 19 16 21 24 17 12 17 24 27 27 24 23 23 17 11 12 14 18 14 9 9 14 19 21 19 22 22 19 19 22 27 28 28 29 29 36 35 32 32 32 33 32 29 29 28 30 31 29 29 28 25 25 25 24 22 22 23 24 25 26 26 25 22 19 18 17 16 16 17 17 17 17 16 15 14 14 15 16 16 15
14 18 20 22 20 16 16 17 21 25 19 15 18 23 26 25 23 19 18 16 14 13 12 16 17 10 9 11 17 21 21 22 23 21 19 21 26 29 29 30 31 37 35 34 34 33 34 32 29 29 28 29 31 30 29 28 27 27 25 24 22 22 23 24 25 26 26 24 22 21 20 19 17 16 17 19 20 19 17 16 15 15 17 18 18 17
12 18 22 21 16 14 17 19 24 24 19 17 21 24 23 22 21 16 14 14 14 12 12 17 19 12 9 10 13 18 19 19 19 19 18 21 27 29 29 30 33 39 37 33 34 33 33 33 31 30 28 29 31 30 28 28 29 29 26 25 24 24 25 25 25 26 26 24 24 23 23 22 20 19 20 22 22 19 17 16 16 17 18 18 17 16
14 21 23 18 15 15 18 20 24 24 21 21 21 21 20 17 16 14 12 15 12 10 15 21 22 16 10 10 12 13 15 17 16 16 17 21 27 29 29 30 32 38 37 34 35 33 32 33 32 29 27 28 30 30 29 28 28 28 27 27 27 26 27 26 26 27 28 28 27 24 23 22 21 21 24 24 22 19 18 18 18 18 19 18 17 16
16 18 16 14 19 19 19 18 21 23 23 21 16 15 15 12 12 12 12 13 10 10 17 21 23 20 12 9 12 13 16 20 18 17 18 20 25 28 29 29 31 38 38 37 38 35 34 34 33 31 29 29 30 30 31 29 28 28 29 30 30 28 28 28 28 29 30 30 28 24 22 22 21 22 23 21 19 19 19 19 19 19 19 18 17 16
14 14 12 13 19 20 16 13 15 19 20 18 14 13 12 10 10 10 11 11 10 12 17 20 21 18 12 10 13 15 18 22 19 18 20 21 24 28 30 30 32 38 38 38 42 40 38 36 35 33 31 30 32 32 31 30 30 30 30 33 32 30 30 30 29 28 28 29 27 24 24 22 22 22 20 19 18 19 19 19 19 19 19 18 17 16
9 11 13 12 14 18 16 11 11 14 17 17 14 11 11 11 9 9 11 11 11 12 16 21 19 13 11 11 14 16 15 20 21 21 24 27 28 29 32 33 33 36 37 37 41 41 38 37 35 34 32 32 35 34 32 32 32 32 33 35 33 31 31 30 29 28 26 26 25 24 24 23 23 22 21 21 20 19 18 18 18 18 17 16 16 15
8 7 10 12 9 13 17 15 11 12 16 16 13 12 12 11 9 9 11 11 11 11 15 19 15 10 9 10 13 17 14 18 25 25 27 30 31 31 32 34 33 35 36 36 38 39 38 37 35 35 34 34 37 35 32 33 32 34 37 35 32 32 31 29 28 27 26 25 24 23 23 23 23 22 22 23 21 19 18 17 19 19 15 15 16 15
10 7 10 15 10 10 16 17 15 13 13 14 13 13 13 13 10 7 8 9 8 8 10 11 9 7 7 7 15 18 18 16 23 23 25 27 30 30 30 32 32 33 35 35 37 38 37 38 37 37 34 33 36 35 33 34 34 35 37 34 32 32 30 29 28 27 26 25 24 23 24 24 23 22 22 23 21 18 16 17 20 19 16 16 16 14
9 7 10 17 13 14 18 17 17 14 10 12 13 13 13 16 13 6 7 8 6 7 8 8 8 8 8 6 13 18 18 14 19 19 20 24 29 29 27 30 31 32 35 36 38 38 39 41 40 38 35 33 35 35 34 34 33 34 36 34 31 28 27 27 26 26 26 25 24 24 24 24 23 23 22 22 20 17 17 20 21 18 16 16 15 13
5 5 10 18 16 17 19 18 18 19 15 10 12 14 14 16 13 7 6 6 6 7 7 10 13 11 10 6 7 14 15 15 19 18 18 21 26 26 25 29 31 32 36 37 38 39 41 41 38 37 37 34 34 36 35 33 31 33 36 35 32 28 26 26 25 27 27 26 26 26 25 24 23 23 22 21 19 17 19 21 20 17 16 16 14 11
5 5 9 19 16 14 15 15 14 20 23 16 14 15 13 12 12 9 6 6 9 8 6 12 15 11 9 7 8 14 15 15 17 16 17 20 21 22 25 30 30 32 35 36 37 38 40 39 36 35 37 34 33 35 34 32 32 36 38 35 31 28 27 26 26 28 28 27 27 26 25 25 24 23 22 20 18 18 20 21 19 17 16 14 11 10
5 3 5 15 16 13 11 11 10 12 18 18 16 15 12 9 10 10 7 7 8 7 6 11 12 8 8 10 13 15 14 14 14 11 13 16 20 23 26 29 30 33 35 34 35 37 39 40 36 34 36 34 33 35 33 33 35 39 38 32 28 27 27 28 28 29 30 29 27 26 25 25 25 24 22 19 18 19 21 21 19 17 15 12 11 10
3 0 2 10 15 13 9 9 11 10 11 13 13 13 11 9 8 9 9 8 8 7 6 7 7 7 7 10 13 14 12 13 13 11 11 13 22 27 28 31 33 34 34 33 35 37 39 39 36 32 31 31 33 34 34 36 37 35 32 28 26 27 29 29 29 30 31 30 28 26 25 26 26 25 23 20 19 21 23 21 18 16 14 13 13 13
3 1 3 6 9 9 9 11 15 15 13 12 11 11 12 10 8 9 9 9 9 7 7 6 6 7 6 7 11 12 11 13 14 13 11 13 24 28 29 33 36 36 35 34 35 38 39 39 35 32 30 29 32 35 36 38 37 31 27 24 24 29 31 30 29 29 30 29 28 26 26 27 27 25 22 21 22 24 23 20 18 15 14 14 15 15
6 2 5 7 8 9 13 14 17 19 18 16 13 12 13 10 8 8 8 8 9 9 10 8 5 6 5 4 10 10 10 12 15 14 11 15 25 28 30 34 37 36 35 35 38 39 39 38 33 32 33 30 32 36 38 39 36 31 28 25 26 29 31 30 29 29 30 29 27 26 27 27 27 24 22 22 25 26 23 20 18 15 14 15 16 16
7 2 5 6 7 9 12 14 17 20 18 16 13 12 11 9 10 9 6 6 7 9 11 8 5 7 6 5 8 11 11 11 14 16 15 15 22 27 31 35 37 35 34 37 41 39 38 38 33 31 34 34 33 37 38 36 33 30 29 28 28 29 29 30 30 29 29 29 27 26 27 27 26 24 22 25 27 26 23 20 17 14 13 13 16 18
1 0 2 4 5 7 9 11 13 15 14 10 9 13 13 12 14 10 4 5 7 11 13 8 5 6 6 7 9 13 14 12 13 17 17 15 23 29 32 34 36 34 34 39 42 37 37 38 33 30 34 36 34 36 37 34 32 32 29 27 29 30 29 30 30 30 30 29 28 28 28 27 25 24 25 28 29 25 23 20 17 13 11 12 16 20
3 1 3 5 5 6 7 8 9 10 9 7 10 16 16 15 15 9 3 4 5 10 14 9 6 6 8 9 10 12 14 13 12 16 16 17 24 30 32 33 34 34 35 40 43 39 38 38 35 31 34 34 32 36 38 33 31 31 28 27 29 30 30 30 30 31 30 29 29 29 28 26 25 25 27 30 30 26 23 20 16 13 12 12 17 20
3 3 7 8 7 8 9 12 13 12 10 10 14 18 16 15 16 7 2 4 5 7 8 4 8 11 11 10 9 9 11 13 13 13 14 17 22 28 33 33 33 33 36 39 41 40 39 37 35 34 34 33 33 38 40 33 29 30 29 29 31 31 32 33 31 30 30 29 29 29 29 27 26 27 30 32 31 26 23 20 16 14 13 12 15 19
2 3 7 9 8 7 9 16 19 17 16 15 16 18 17 18 15 5 1 6 7 3 2 7 11 10 11 11 10 9 9 10 12 12 14 18 22 27 32 32 31 32 36 40 41 40 40 38 36 35 34 33 34 40 42 35 28 29 30 32 34 33 35 35 33 31 29 29 30 30 29 28 27 28 32 33 31 27 24 21 18 16 14 11 12 16
1 4 4 6 9 10 12 18 21 19 17 16 15 16 18 18 13 6 6 9 5 1 5 10 9 6 8 7 6 8 7 7 13 15 18 22 26 28 28 29 29 30 35 41 40 39 40 38 37 36 35 35 36 39 41 37 30 30 33 35 35 36 36 35 33 31 30 30 30 29 28 28 28 30 33 34 31 27 25 22 19 17 15 11 10 14
2 3 5 8 9 10 13 15 20 20 17 15 15 15 16 17 15 11 7 4 3 8 9 10 9 6 5 6 5 5 5 4 12 14 19 26 28 27 26 26 26 28 35 40 39 37 38 37 37 36 34 35 38 38 39 39 35 34 35 36 36 36 36 35 32 30 30 29 28 28 28 29 30 31 35 35 31 29 26 23 21 18 15 12 10 13
1 4 6 8 7 7 12 12 14 20 18 14 14 15 15 15 15 12 4 3 7 9 10 10 9 6 6 7 7 10 10 4 12 12 18 24 26 26 25 25 24 25 32 37 36 35 35 36 37 37 34 35 37 37 38 40 40 37 35 36 35 34 34 34 31 29 29 28 27 28 29 30 30 32 35 35 32 30 27 25 23 19 15 13 11 15
1 4 5 6 5 5 7 11 14 18 19 14 13 16 17 13 11 9 5 3 5 7 8 9 7 5 5 5 4 6 8 4 9 13 15 20 24 25 24 25 26 26 29 33 34 34 35 36 37 37 35 35 37 38 38 38 40 38 36 35 35 34 34 33 31 28 27 26 27 29 29 29 30 32 35 34 32 30 29 27 24 19 16 15 14 17
1 3 4 5 4 5 8 11 14 14 15 10 9 14 17 14 12 9 6 5 6 5 4 5 5 5 7 4 1 1 3 4 6 13 16 18 22 24 24 26 27 28 30 33 34 34 35 36 36 36 35 35 39 41 37 36 39 39 35 33 35 34 32 30 28 27 26 26 28 29 29 30 32 34 35 35 33 31 30 28 25 20 18 18 17 19
2 1 4 4 2 4 8 10 10 9 9 7 8 13 16 15 14 11 6 6 8 5 4 8 6 4 7 6 2 1 2 5 6 13 17 19 21 22 23 26 27 27 30 32 32 32 33 33 34 34 33 35 40 41 36 33 37 38 34 31 33 32 29 27 26 26 26 26 27 29 30 32 35 37 37 36 34 33 31 29 26 21 19 19 19 20
2 1 3 4 3 4 3 6 8 7 7 8 10 13 15 13 13 13 10 10 11 7 5 9 11 8 6 5 4 3 2 3 4 10 15 17 20 21 21 23 25 27 30 32 31 31 32 32 34 33 32 35 40 39 33 32 35 35 33 31 31 30 28 27 26 26 27 26 25 27 29 31 34 37 38 37 35 32 31 30 27 22 19 18 18 19
2 1 3 4 4 3 2 5 6 6 8 10 11 12 12 11 12 12 10 11 11 7 5 5 7 10 8 4 3 4 4 1 2 6 9 13 17 19 20 22 25 28 31 32 31 31 32 32 33 34 34 35 38 37 34 33 34 33 31 30 30 29 29 28 28 28 28 27 25 27 28 30 33 35 36 36 34 32 32 31 28 23 19 18 16 16
3 1 1 4 4 3 5 5 2 2 7 9 9 11 10 9 11 9 6 7 9 9 10 9 4 6 7 6 4 4 6 5 4 4 6 11 16 18 19 23 26 28 30 31 31 32 33 31 31 34 35 35 36 37 35 34 34 33 32 31 31 31 31 30 30 28 27 27 27 26 27 29 31 32 33 34 34 33 33 32 28 23 20 18 17 17
6 4 3 5 5 5 5 5 2 2 6 6 8 11 10 8 9 8 5 5 9 13 12 7 3 3 5 6 5 3 4 6 5 1 2 7 12 16 18 23 27 28 29 32 33 31 30 31 31 32 34 35 37 36 34 34 35 35 34 33 32 33 33 32 31 30 27 25 25 26 26 27 28 29 31 33 34 34 33 32 28 24 21 19 17 18
10 8 6 6 5 5 5 5 4 3 5 6 8 12 13 12 10 8 6 6 9 12 8 6 4 2 4 8 5 3 3 5 5 4 4 6 11 15 18 22 27 29 29 31 33 29 28 30 30 31 34 36 38 36 33 34 35 33 32 31 32 34 35 32 32 31 26 23 23 23 24 26 28 28 29 32 34 33 32 31 28 24 21 19 18 19
5 4 4 5 7 7 4 3 2 1 2 4 8 12 15 13 9 9 9 5 5 6 8 7 7 3 7 9 6 3 2 2 4 9 10 10 13 18 20 22 26 29 28 28 28 26 26 29 31 33 35 36 35 34 32 33 33 29 28 28 30 34 35 33 32 31 28 26 25 24 25 28 29 29 30 32 32 32 31 29 25 22 20 18 18 19
2 2 5 7 7 6 3 3 1 2 2 5 7 7 12 9 5 8 7 0 3 3 7 8 7 6 9 7 5 3 1 2 9 15 14 12 16 20 21 23 27 28 27 26 26 25 27 31 32 32 33 33 33 32 30 32 33 29 26 27 29 31 32 32 33 32 29 28 26 25 27 29 29 30 31 31 31 30 29 26 23 22 21 19 19 20
3 3 5 6 5 4 2 5 2 2 3 7 9 4 10 6 3 4 2 3 5 2 6 6 5 10 8 5 5 5 4 9 17 19 15 14 18 21 22 24 29 29 27 27 27 26 27 29 29 28 27 29 32 30 28 30 33 31 28 28 27 26 24 25 28 30 30 28 27 27 27 28 28 29 30 30 31 30 28 26 25 24 22 21 22 24
1 1 1 2 2 2 3 5 3 2 3 7 9 6 6 3 2 4 2 2 2 0 4 8 13 11 6 6 7 7 10 14 17 18 18 18 20 23 25 26 29 30 30 28 27 25 24 24 25 25 25 27 30 28 26 29 32 33 31 27 25 25 24 22 24 29 32 32 30 29 28 27 28 30 30 31 33 31 29 27 27 25 23 23 24 26
3 2 1 2 2 2 3 5 2 1 1 1 4 2 7 5 5 5 3 3 3 2 5 12 14 10 9 10 9 9 11 15 15 16 18 18 19 22 26 28 29 30 30 27 26 25 24 22 23 24 25 28 31 28 24 26 29 31 30 27 25 27 26 22 23 28 33 35 32 31 30 30 31 31 31 32 32 30 29 29 28 26 24 23 25 27
5 4 3 2 2 2 2 5 4 7 2 8 6 7 14 13 8 7 7 8 8 8 13 16 13 10 10 10 10 10 11 11 12 12 13 15 19 21 21 24 28 29 28 27 26 25 24 23 24 25 24 25 27 25 23 25 27 27 27 25 26 26 24 21 21 26 33 37 35 33 33 32 30 29 29 31 32 30 30 29 28 26 25 24 26 28
5 7 5 2 3 3 5 9 9 7 3 11 10 11 16 15 10 10 13 13 11 13 17 15 10 9 10 10 10 10 12 12 11 10 8 8 17 22 18 17 23 27 26 25 25 23 22 23 25 26 24 22 22 22 22 25 26 26 24 23 24 22 20 20 22 25 31 37 37 35 34 32 29 27 27 29 31 30 28 26 24 24 24 25 26 28
2 5 4 4 6 4 3 9 11 6 7 13 11 14 17 14 11 12 13 14 14 15 17 14 10 11 13 12 11 11 12 12 13 14 10 7 13 20 15 10 18 25 24 23 24 23 23 25 25 25 23 22 21 21 22 23 24 24 22 20 20 19 19 22 24 25 31 36 36 35 33 30 28 26 26 27 29 28 26 24 21 21 22 23 25 27
3 4 3 4 7 4 4 7 11 6 14 21 16 11 15 15 14 15 14 15 15 15 15 13 12 14 15 13 12 13 13 11 11 14 13 9 10 16 14 11 17 23 22 21 23 23 23 25 25 23 22 21 20 20 21 21 21 21 20 17 16 17 18 21 24 27 31 34 34 34 32 28 26 25 25 27 27 26 26 25 22 20 20 21 23 24
7 4 2 2 4 3 4 7 9 5 12 17 16 14 16 15 14 15 16 16 17 17 15 13 13 16 17 15 14 14 12 11 10 11 13 12 13 15 14 12 15 20 21 20 21 22 22 23 23 22 21 21 20 20 21 19 17 20 22 20 18 18 18 19 23 28 30 30 31 34 32 28 26 25 24 25 25 25 25 24 22 20 20 21 21 21
6 4 2 2 2 3 3 5 7 4 4 8 14 17 17 14 14 15 17 17 16 16 16 15 16 17 16 16 16 14 13 12 11 11 14 17 19 18 16 14 14 18 20 18 18 21 21 20 20 20 20 21 20 20 21 20 19 21 22 21 20 19 18 19 23 26 27 28 29 32 32 30 28 26 25 26 26 26 25 24 22 21 21 21 20 21
3 3 3 1 1 2 3 4 6 5 2 6 12 15 14 13 14 15 15 15 15 15 15 16 18 18 17 16 14 13 13 13 10 9 12 14 16 16 16 14 15 17 18 16 16 18 19 19 20 21 20 21 20 19 20 21 21 21 20 18 17 17 17 19 22 24 25 26 28 31 34 32 29 28 28 27 26 26 26 25 22 21 20 20 20 21
Wind_Direction
211 221 220 219 221 221 219 221 228 229 231 232 223 220 215 217 223 210 214 220 200 194 212 217 225 228 219 221 229 234 233 229 233 215 183 198 214 209 205 194 199 196 178 182 182 177 178 176 179 176 172 177 177 178 179 177 180 181 176 178 178 173 176 180 181 187 190 191 190 188 192 189 177 174 188 191 191 201 201 204 215 211 206 212 212 215
213 225 228 225 225 225 225 225 227 229 232 235 230 224 216 215 223 214 212 217 208 202 211 212 219 226 222 222 218 226 239 234 236 221 178 191 207 209 208 194 195 191 177 181 176 173 177 175 178 175 172 179 178 175 177 178 181 182 180 182 180 174 177 182 184 189 192 193 193 193 195 188 175 179 196 197 198 206 202 206 218 209 206 210 212 216
225 230 230 229 228 228 230 226 224 226 228 233 236 229 219 211 217 224 220 215 213 212 209 206 215 224 225 229 218 217 229 227 239 232 182 186 201 204 210 198 193 183 168 171 170 171 176 174 177 176 173 180 181 174 174 178 180 181 183 182 178 177 180 183 186 191 194 195 197 195 189 184 182 187 199 197 198 204 203 209 214 206 207 210 212 213
234 231 227 229 230 227 230 228 222 221 224 230 235 233 226 212 206 218 222 214 213 220 213 203 214 221 222 231 222 216 219 225 238 221 177 186 197 201 211 203 194 180 162 165 170 171 173 171 173 175 174 179 182 175 174 179 180 182 186 181 177 179 180 183 186 191 196 198 195 187 183 188 188 189 196 197 197 203 209 215 215 211 212 210 209 206
243 238 226 222 227 226 226 228 221 215 218 225 229 233 229 217 211 212 217 212 211 222 212 197 216 222 216 224 220 213 215 224 227 189 170 188 195 203 212 205 198 179 164 165 169 170 171 171 174 176 176 181 184 179 178 183 183 181 185 183 179 179 181 184 187 191 196 196 187 182 188 191 187 187 195 198 205 211 211 213 213 210 208 201 197 198
242 240 230 220 222 224 224 225 221 213 212 221 225 231 235 228 216 207 213 210 202 219 205 188 213 223 212 219 217 211 208 220 217 180 183 195 196 211 211 203 196 172 162 164 165 167 169 171 176 177 178 183 186 184 182 183 184 184 187 185 180 180 183 185 187 189 193 194 190 188 192 190 185 191 196 199 211 214 206 202 198 195 196 192 186 187
244 236 231 227 221 220 223 225 221 214 209 218 220 225 235 242 227 206 210 215 199 213 198 182 209 229 213 215 213 210 202 214 216 189 192 196 200 214 206 198 184 160 159 164 163 169 172 172 175 177 179 183 186 186 181 181 183 187 187 182 179 183 185 185 186 188 192 195 192 188 190 190 189 194 198 202 207 207 203 200 194 190 190 188 186 186
242 235 229 228 222 217 220 222 220 215 211 216 214 217 228 240 237 210 207 218 205 207 196 183 202 230 228 210 203 207 203 210 214 197 192 194 201 208 199 196 176 156 163 169 168 174 174 172 174 178 180 182 184 182 181 183 182 182 182 178 179 183 185 187 188 190 195 196 191 184 187 191 193 196 197 198 199 201 204 203 198 195 191 189 191 193
235 237 228 223 222 215 217 223 221 215 214 215 209 217 227 234 238 220 211 222 209 205 204 192 197 217 239 213 193 201 204 208 210 201 194 192 200 203 196 193 170 155 164 168 170 175 172 172 175 177 180 180 181 181 185 186 181 180 180 179 181 180 184 189 190 192 196 196 189 187 195 199 198 197 192 191 195 200 204 201 199 197 195 195 197 196
236 241 234 223 221 217 213 222 226 217 210 216 212 214 222 228 237 237 226 224 211 204 213 205 198 204 235 222 196 197 203 208 206 201 196 191 198 200 193 191 172 161 168 170 171 174 171 172 173 175 177 178 181 185 186 183 182 182 179 180 181 179 184 189 192 195 196 194 190 193 202 204 201 198 193 192 194 197 202 202 201 199 197 195 194 193
247 254 250 228 215 224 223 222 227 219 207 214 217 209 211 219 231 242 231 218 210 204 213 214 205 201 221 223 206 198 196 202 201 200 197 187 196 199 191 190 177 165 171 174 173 174 171 169 170 172 175 177 183 186 183 181 183 182 178 180 182 182 186 189 195 198 198 197 194 196 202 199 197 199 197 196 193 193 199 203 203 200 194 189 188 190
249 254 260 230 209 222 236 227 222 218 209 213 216 199 199 212 222 226 216 210 214 208 207 213 211 205 213 220 212 203 192 196 200 201 196 183 192 197 189 189 179 166 170 172 168 168 166 165 167 169 173 179 184 185 181 182 184 184 182 184 184 187 189 192 199 200 200 201 197 196 200 196 196 199 199 196 189 191 199 203 203 197 191 188 188 191
247 240 250 234 211 216 234 231 218 215 209 211 211 197 196 203 209 209 201 201 218 217 202 206 215 212 213 218 216 212 194 190 198 201 192 183 190 194 188 189 181 169 170 168 164 165 166 167 168 168 171 179 186 184 180 182 185 184 185 186 187 189 192 196 201 201 203 204 199 197 200 200 198 197 194 192 190 195 201 204 201 193 189 189 190 194
231 229 238 234 213 212 223 224 212 204 201 206 206 201 200 192 190 195 197 200 209 216 202 200 215 222 215 212 217 225 203 182 193 199 187 182 189 194 191 189 182 173 170 167 166 168 167 168 169 167 171 181 186 183 177 180 183 182 184 187 188 190 194 198 200 202 203 201 198 199 202 202 198 194 192 193 197 200 202 204 198 190 189 191 194 200
218 216 220 223 211 205 217 226 223 204 197 205 206 205 201 192 193 193 195 201 200 206 201 197 209 220 211 195 203 232 228 180 185 192 181 179 187 193 191 188 184 177 171 166 166 167 166 166 167 167 173 182 185 180 177 180 182 183 186 188 189 192 196 197 198 201 201 197 195 196 200 201 196 194 196 198 201 203 203 201 191 188 193 195 198 202
228 231 202 203 205 203 215 229 239 228 202 199 205 205 198 194 200 197 197 206 199 199 202 200 208 213 217 187 180 220 240 192 176 182 177 177 184 189 185 182 182 178 171 164 162 163 165 167 170 171 173 180 184 180 179 180 180 184 190 191 191 194 197 198 197 197 198 196 193 191 195 198 196 197 201 200 201 203 201 194 186 189 197 197 198 197
224 237 190 182 194 210 215 223 235 240 211 192 201 200 198 204 207 201 202 206 195 199 203 203 205 200 217 205 177 208 228 185 166 179 185 181 181 182 178 178 182 176 166 160 160 163 167 169 171 173 173 179 184 182 179 180 178 184 191 192 191 193 195 196 194 193 195 193 190 189 193 196 197 198 201 202 202 199 194 186 183 189 196 196 194 191
242 254 189 178 189 208 220 226 232 245 241 204 194 199 203 212 213 207 206 201 193 202 199 199 205 196 195 197 182 206 208 169 164 184 192 184 179 177 175 178 180 172 162 162 164 166 167 168 169 172 174 180 186 184 182 180 177 183 192 192 191 191 191 191 191 191 192 190 188 190 193 196 199 199 201 206 204 197 190 183 183 191 194 192 191 188
275 279 191 183 188 199 219 225 223 246 247 217 192 201 205 204 203 200 205 204 195 197 201 199 201 195 188 185 185 200 197 169 165 183 191 183 175 174 175 176 172 163 162 166 166 164 164 165 167 172 175 181 186 186 182 175 175 185 192 193 196 197 191 187 189 190 190 190 189 191 195 198 199 201 203 208 204 193 186 184 187 193 190 185 185 189
270 282 185 183 185 184 203 216 211 240 242 217 199 201 203 206 202 192 200 210 197 195 204 196 192 198 198 185 181 188 189 175 163 177 196 181 169 173 176 173 165 158 161 164 162 161 163 166 170 175 179 182 184 185 179 170 175 188 192 192 195 193 184 182 186 189 189 190 191 194 197 197 199 202 205 207 200 186 181 184 190 192 185 178 181 195
260 64 200 186 183 181 190 210 214 224 227 214 204 198 200 214 209 196 203 213 203 197 201 192 187 204 198 176 176 178 174 173 171 182 197 174 166 174 174 167 160 156 160 162 161 160 161 166 172 176 178 180 182 184 177 171 177 189 192 191 189 179 174 179 185 189 190 191 195 199 198 197 200 204 205 202 192 181 181 185 189 190 184 178 185 198
197 102 254 196 177 191 202 204 216 229 224 208 204 201 200 207 208 199 196 201 205 199 200 200 188 200 202 167 170 172 161 167 180 189 190 169 168 172 168 161 157 157 159 159 159 161 161 165 173 176 174 177 182 182 176 173 180 188 189 187 181 173 173 179 184 189 191 192 196 199 198 199 201 203 203 195 183 180 183 184 188 190 184 181 190 198
118 88 250 207 181 196 203 206 221 235 227 212 212 212 202 202 215 209 188 191 204 196 195 203 188 199 221 159 152 159 157 168 180 183 183 173 171 169 161 155 154 157 161 159 160 162 162 165 173 178 177 177 181 182 177 177 184 188 187 183 177 174 176 179 183 188 190 191 195 196 196 200 203 203 199 187 180 182 184 185 189 190 184 185 192 195
116 156 245 212 185 195 202 210 228 238 229 211 210 217 212 205 212 218 194 179 202 201 192 191 186 198 202 164 149 149 161 180 177 175 184 176 162 155 150 149 151 155 159 160 162 162 162 165 168 175 179 179 180 182 179 179 183 184 183 183 180 176 177 180 184 187 188 191 195 196 196 200 204 202 193 184 182 183 185 187 189 188 186 191 196 196
202 159 246 210 180 189 196 203 222 234 230 217 213 222 222 204 203 218 204 176 206 209 195 181 185 194 163 151 157 151 165 187 175 174 186 165 141 141 142 146 151 154 153 156 160 161 160 164 167 173 180 181 180 181 179 179 182 178 177 182 181 176 176 181 186 187 188 191 195 198 198 200 202 197 190 185 182 182 185 187 187 186 186 196 201 199
224 84 226 217 183 181 186 196 214 217 219 237 229 218 213 198 201 218 214 195 208 201 199 192 171 151 111 128 159 154 164 184 173 175 181 155 141 144 145 148 153 153 152 153 158 160 160 165 171 176 182 182 180 180 179 177 178 175 176 180 177 174 177 182 184 186 189 193 195 197 198 198 197 193 189 186 182 182 185 186 185 185 184 193 201 200
206 191 224 225 201 188 180 191 208 206 202 221 220 211 208 201 205 218 254 232 216 199 210 175 129 127 116 132 164 161 167 181 172 169 171 161 156 151 147 152 155 154 156 158 160 163 163 167 174 179 182 181 180 181 179 175 174 175 178 177 172 173 180 182 182 184 190 194 193 195 196 196 195 194 189 184 182 183 185 184 185 184 182 188 198 201
297 250 232 227 229 236 205 193 203 208 202 206 211 208 207 205 203 202 255 233 226 215 165 113 116 131 139 149 171 181 184 179 164 165 171 164 157 148 145 151 154 152 156 161 163 166 167 170 176 180 180 179 179 180 179 177 174 173 175 174 173 177 183 184 183 184 189 194 194 194 195 193 194 193 187 183 184 185 184 185 188 187 185 187 196 203
5 295 265 238 248 268 247 208 202 209 205 198 204 207 206 205 197 189 230 242 244 54 100 118 118 136 148 140 161 198 211 173 156 166 168 150 138 137 142 151 156 155 157 162 166 169 171 173 177 179 179 178 179 177 178 179 175 171 174 174 176 181 184 185 185 186 192 196 194 192 191 191 194 192 185 183 186 186 185 187 191 191 190 195 205 203
102 286 288 266 250 265 267 230 201 202 205 198 200 203 203 202 195 194 222 244 117 87 88 99 92 77 60 38 20 319 299 183 156 144 137 135 134 138 143 151 160 159 157 162 167 170 173 175 177 178 178 178 179 178 178 180 177 172 174 177 179 183 185 185 184 187 194 196 192 189 188 191 195 191 185 185 188 187 187 190 190 191 194 202 212 202
39 265 262 260 246 249 272 264 220 204 203 201 200 201 201 203 200 189 172 89 111 110 102 104 99 78 43 24 3 334 323 221 170 139 124 132 140 145 149 154 163 163 158 162 167 170 174 177 176 176 176 177 179 179 179 180 179 176 177 180 181 182 185 187 185 188 194 194 190 189 192 196 196 190 185 187 189 188 189 191 191 192 199 204 206 198
291 284 265 249 250 237 240 266 254 214 197 201 207 199 197 210 217 187 151 116 120 129 134 125 108 93 72 33 348 320 317 261 175 156 147 151 155 159 161 162 166 167 162 165 170 171 175 178 176 175 176 176 177 176 174 175 177 177 178 181 182 182 186 188 189 192 194 190 188 191 196 198 193 188 188 189 189 188 190 193 193 195 200 200 198 197
211 330 297 241 239 230 206 235 251 218 192 200 211 197 193 208 223 200 160 140 135 149 161 126 89 95 116 112 313 298 296 269 189 163 164 168 169 172 171 168 171 173 168 168 172 173 176 179 176 174 176 177 177 176 174 175 176 176 177 182 185 186 187 188 190 191 188 185 187 190 193 194 190 188 190 191 191 191 191 194 196 198 199 195 195 199
150 331 297 275 249 230 205 205 216 205 193 191 192 200 200 198 206 211 193 166 167 172 134 120 121 111 111 118 115 107 216 245 201 171 174 177 174 174 175 173 176 176 169 167 171 174 177 176 172 173 176 176 175 174 174 177 178 178 180 183 184 185 187 187 187 185 181 182 187 191 192 193 190 190 192 193 193 193 193 195 199 201 198 195 199 202
171 153 294 289 263 254 220 179 184 191 197 185 177 196 204 193 199 218 216 192 184 178 144 138 140 129 105 101 104 115 168 236 205 180 182 180 173 174 177 175 173 169 164 166 171 174 175 173 171 172 172 171 173 172 172 176 178 179 182 183 181 182 186 185 181 180 179 179 184 191 193 193 192 192 194 194 194 194 195 197 200 201 197 197 204 204
234 309 304 273 255 268 234 193 195 183 182 186 181 187 198 195 198 214 215 199 192 184 189 188 143 123 123 118 100 110 121 157 213 175 172 174 171 172 171 167 164 163 163 166 169 169 169 169 170 169 166 166 170 172 174 176 175 176 178 176 173 174 177 178 177 179 180 179 182 187 189 190 192 194 195 195 195 194 195 197 200 199 196 197 204 200
221 111 326 271 256 248 213 189 172 150 176 190 187 180 189 195 195 204 215 207 203 198 203 213 180 117 116 107 92 108 134 158 174 144 153 168 168 168 168 163 162 163 163 163 164 166 169 170 167 166 165 166 169 171 175 177 177 179 177 172 169 170 173 177 179 180 182 182 186 189 189 190 193 195 196 195 194 194 195 198 199 198 197 201 202 195
220 182 210 242 239 242 221 177 139 176 180 179 176 173 182 192 184 189 224 225 214 213 208 192 143 101 100 104 99 99 148 167 169 159 210 174 159 161 162 157 156 157 156 158 161 164 169 171 166 164 167 168 168 169 173 175 178 181 179 174 171 171 174 177 178 179 181 183 189 192 190 190 192 195 196 195 193 193 195 199 200 197 198 202 197 191
228 219 224 247 253 251 225 182 171 174 163 174 180 173 181 189 171 167 204 225 215 209 184 140 165 192 113 110 106 100 156 168 163 182 211 178 155 154 149 144 148 149 151 158 161 160 165 171 168 166 168 167 167 170 172 174 177 180 178 175 174 174 177 178 177 177 177 180 187 187 185 188 193 196 198 196 193 194 197 200 200 198 199 197 190 191
237 241 226 244 257 250 223 177 178 201 154 205 207 176 166 175 179 182 191 208 221 188 136 146 208 203 102 113 122 127 175 190 156 160 167 163 155 150 144 143 148 148 150 159 162 161 166 171 168 165 165 166 168 170 170 173 178 179 176 177 178 180 182 183 183 182 179 180 185 183 181 189 195 198 199 197 195 196 198 197 197 199 198 190 186 193
181 247 220 225 250 255 211 120 90 287 321 310 271 190 144 142 186 195 180 111 357 109 138 182 203 132 111 135 150 144 148 105 130 144 150 150 149 149 149 151 151 149 149 155 159 161 166 169 167 166 168 171 174 174 171 175 180 179 176 177 180 184 189 193 195 196 192 188 187 185 188 194 196 196 197 197 197 198 196 192 193 198 194 184 185 193
176 221 213 216 246 270 182 118 103 281 307 313 291 210 142 146 196 178 151 356 3 94 165 182 131 111 120 131 124 137 130 116 127 139 146 148 149 152 155 154 152 151 151 153 156 158 163 167 167 167 171 176 179 179 177 177 178 177 175 174 176 183 192 199 202 200 196 194 193 192 197 198 195 194 195 197 198 197 192 191 196 198 192 186 190 195
51 323 253 254 275 266 177 140 134 189 207 260 264 206 157 182 174 121 80 359 20 146 173 122 98 94 94 83 98 135 138 129 133 141 149 152 151 156 161 156 151 153 155 158 160 159 157 159 162 166 172 177 178 177 174 174 175 177 177 174 174 180 185 194 200 197 194 197 198 197 199 200 197 197 198 198 197 194 191 193 197 198 195 193 196 199
33 24 304 332 342 259 186 140 108 325 120 311 287 139 103 87 115 134 120 70 60 43 95 99 94 85 74 81 103 128 134 137 141 141 146 152 153 157 161 156 149 150 154 156 157 156 154 155 161 169 173 176 176 174 171 174 176 178 179 177 176 181 186 192 198 196 195 200 201 198 200 202 201 199 198 196 193 190 191 196 200 201 202 200 200 204
33 359 291 286 7 349 57 72 338 296 55 73 57 83 94 93 100 110 93 70 53 65 85 88 87 83 80 91 112 117 113 124 133 132 138 152 155 152 151 148 147 148 151 152 152 153 154 155 162 165 164 168 175 174 173 178 179 176 177 178 180 188 195 198 197 195 195 199 200 199 201 203 200 195 193 194 194 193 196 202 205 206 207 205 206 210
29 2 336 328 10 4 28 27 347 302 85 83 78 82 86 88 87 83 85 80 72 85 97 95 94 103 101 102 108 105 103 118 134 129 113 129 146 146 145 149 150 148 149 150 151 151 151 153 160 163 158 160 172 174 173 178 177 171 172 177 183 193 200 196 191 192 196 198 198 199 202 201 197 194 196 199 201 202 204 208 211 211 211 211 212 215
57 35 31 359 343 338 21 8 341 325 40 47 61 84 85 88 92 84 83 86 86 94 101 101 103 109 109 109 106 101 105 122 138 139 123 107 135 144 150 160 152 147 146 147 149 153 153 153 160 164 160 160 169 172 171 174 175 174 179 189 193 197 199 195 190 191 195 197 197 199 202 201 197 197 200 202 204 207 211 216 219 218 218 217 216 215
17 39 44 345 339 10 71 5 327 344 43 32 30 66 81 87 96 92 90 92 91 93 102 109 109 107 105 106 104 101 106 115 125 133 133 130 142 149 155 155 148 148 149 147 149 153 153 154 159 161 158 158 163 167 169 173 175 176 182 192 196 195 198 198 194 193 195 197 198 201 205 204 201 201 203 205 208 213 219 224 227 228 229 227 221 216
1 28 37 316 336 21 55 9 342 22 63 41 26 43 61 68 77 79 81 86 88 91 96 96 96 104 111 113 109 106 109 115 122 128 134 144 156 159 160 162 155 150 147 148 151 151 150 153 158 159 159 161 164 168 172 173 172 174 179 184 187 192 197 196 193 196 200 203 205 208 209 207 204 206 211 212 212 215 220 226 228 228 229 228 223 219
11 57 34 328 4 33 23 4 3 22 68 38 30 40 48 56 63 64 64 68 74 82 86 78 73 83 96 104 107 107 102 101 114 127 132 145 158 160 159 162 156 145 142 146 154 156 155 158 159 160 165 169 168 170 173 170 170 179 186 187 188 195 200 193 188 193 200 205 210 211 211 209 207 209 215 216 213 213 216 220 222 221 222 223 220 216
0 106 100 98 57 13 337 353 26 43 40 34 42 42 39 48 63 66 63 63 66 71 77 77 72 71 74 79 87 97 96 92 101 115 118 128 144 151 150 146 140 139 142 145 152 158 161 165 165 163 167 171 172 176 180 177 175 180 185 186 188 196 199 192 187 190 196 204 209 211 211 212 211 211 214 215 213 213 215 217 217 217 218 221 219 214
Height
1465 1466 1464 1460 1456 1452 1451 1449 1446 1444 1440 1436 1433 1431 1429 1430 1425 1421 1425 1419 1416 1427 1432 1432 1434 1433 1433 1435 1433 1433 1432 1431 1432 1431 1434 1442 1447 1449 1452 1455 1459 1462 1467 1474 1477 1479 1482 1485 1486 1487 1491 1494 1496 1499 1501 1503 1506 1507 1509 1511 1513 1514 1516 1518 1519 1521 1523 1526 1528 1530 1532 1534 1537 1540 1541 1542 1543 1543 1544 1546 1547 1548 1548 1549 1551 1552
1460 1462 1458 1453 1451 1450 1449 1449 1448 1446 1441 1436 1432 1427 1423 1425 1423 1418 1419 1416 1412 1420 1426 1427 1431 1430 1428 1429 1429 1431 1431 1429 1427 1427 1430 1437 1443 1447 1449 1452 1456 1460 1465 1472 1475 1477 1481 1483 1485 1487 1490 1492 1494 1497 1499 1501 1504 1506 1508 1510 1511 1513 1514 1516 1518 1521 1523 1525 1528 1530 1532 1535 1537 1539 1540 1541 1542 1543 1545 1547 1547 1548 1548 1549 1550 1551
1457 1454 1451 1450 1449 1450 1449 1445 1445 1445 1441 1437 1430 1424 1421 1420 1422 1420 1414 1411 1410 1414 1420 1423 1428 1429 1426 1425 1424 1426 1427 1426 1424 1424 1426 1433 1439 1443 1446 1449 1453 1457 1462 1468 1472 1475 1478 1481 1484 1486 1489 1491 1493 1496 1498 1500 1502 1505 1507 1508 1510 1511 1513 1516 1518 1520 1522 1525 1527 1530 1533 1534 1535 1538 1540 1541 1541 1543 1545 1546 1546 1547 1548 1548 1550 1551
1452 1446 1444 1448 1449 1448 1446 1442 1442 1442 1440 1436 1430 1425 1419 1413 1418 1422 1414 1409 1409 1409 1414 1420 1425 1426 1425 1423 1419 1420 1422 1422 1422 1422 1423 1429 1436 1440 1444 1447 1450 1454 1458 1464 1469 1472 1476 1479 1482 1485 1487 1490 1492 1495 1497 1498 1501 1503 1505 1506 1508 1510 1512 1515 1517 1519 1522 1524 1527 1530 1532 1532 1534 1537 1539 1540 1542 1543 1544 1544 1545 1546 1547 1548 1549 1550
1445 1441 1440 1445 1446 1444 1444 1440 1436 1438 1438 1432 1426 1424 1417 1408 1410 1414 1411 1408 1408 1408 1407 1416 1428 1426 1421 1421 1417 1415 1418 1419 1420 1420 1422 1427 1433 1439 1442 1444 1448 1451 1455 1460 1465 1470 1473 1476 1480 1484 1486 1488 1491 1493 1495 1496 1499 1501 1503 1505 1506 1509 1511 1513 1515 1518 1521 1524 1526 1529 1530 1531 1535 1537 1537 1539 1541 1542 1543 1543 1544 1544 1545 1546 1547 1549
1441 1439 1439 1441 1442 1441 1440 1437 1431 1431 1435 1431 1422 1418 1413 1406 1404 1407 1407 1405 1410 1413 1403 1412 1436 1432 1417 1416 1415 1413 1415 1417 1417 1417 1420 1426 1431 1436 1438 1441 1445 1449 1453 1459 1463 1467 1471 1474 1479 1482 1485 1487 1489 1492 1494 1495 1498 1500 1501 1503 1505 1507 1509 1511 1513 1516 1519 1522 1524 1527 1528 1531 1536 1537 1537 1538 1540 1541 1542 1542 1543 1544 1544 1545 1547 1548
1440 1437 1437 1436 1437 1438 1436 1433 1426 1424 1429 1427 1418 1414 1413 1407 1400 1400 1403 1402 1409 1414 1402 1405 1431 1434 1418 1411 1410 1409 1412 1414 1413 1413 1418 1423 1429 1432 1434 1438 1442 1445 1453 1460 1463 1466 1469 1472 1477 1480 1483 1485 1488 1490 1492 1494 1496 1498 1499 1501 1503 1505 1507 1509 1512 1514 1517 1520 1523 1526 1529 1531 1534 1535 1536 1537 1538 1540 1540 1541 1542 1543 1544 1545 1546 1547
1439 1437 1436 1434 1434 1434 1432 1428 1422 1418 1422 1420 1412 1412 1412 1406 1398 1393 1397 1400 1400 1403 1401 1402 1419 1431 1420 1406 1402 1404 1409 1411 1410 1410 1414 1419 1425 1429 1431 1435 1439 1443 1451 1458 1462 1465 1468 1471 1474 1477 1481 1483 1486 1488 1490 1493 1495 1496 1498 1499 1501 1503 1506 1508 1511 1513 1515 1518 1522 1525 1527 1529 1531 1532 1534 1535 1536 1537 1538 1540 1541 1542 1543 1545 1546 1547
1438 1437 1433 1431 1431 1429 1426 1423 1417 1414 1415 1412 1410 1410 1407 1403 1398 1390 1393 1396 1392 1398 1408 1404 1411 1429 1422 1399 1395 1400 1404 1408 1407 1407 1411 1415 1421 1425 1428 1433 1436 1441 1449 1454 1459 1464 1466 1468 1472 1475 1479 1482 1485 1486 1488 1491 1493 1494 1496 1498 1500 1502 1505 1507 1509 1512 1514 1516 1520 1522 1524 1525 1527 1529 1530 1532 1533 1534 1536 1538 1540 1541 1543 1544 1545 1546
1437 1436 1430 1427 1428 1425 1421 1419 1414 1410 1410 1408 1407 1406 1403 1401 1397 1394 1396 1393 1390 1403 1413 1403 1403 1422 1422 1398 1391 1397 1399 1403 1404 1404 1407 1411 1418 1422 1424 1430 1434 1439 1446 1451 1456 1461 1464 1466 1469 1473 1477 1481 1483 1485 1487 1489 1491 1492 1494 1497 1499 1501 1504 1506 1509 1510 1512 1514 1517 1518 1519 1521 1524 1525 1527 1529 1530 1532 1534 1537 1538 1540 1541 1543 1544 1545
1435 1434 1428 1422 1423 1423 1419 1416 1411 1407 1406 1405 1403 1401 1402 1401 1398 1401 1397 1388 1397 1410 1408 1397 1392 1409 1420 1401 1386 1390 1393 1395 1399 1401 1403 1407 1414 1418 1421 1426 1431 1436 1442 1447 1452 1458 1463 1465 1467 1471 1475 1479 1482 1484 1487 1488 1489 1491 1493 1496 1498 1500 1502 1504 1506 1507 1509 1512 1514 1515 1517 1520 1523 1524 1525 1526 1528 1530 1532 1534 1537 1539 1540 1541 1542 1543
1435 1434 1430 1420 1420 1422 1418 1413 1408 1404 1403 1402 1399 1397 1404 1407 1404 1402 1394 1389 1405 1410 1398 1391 1387 1399 1414 1400 1382 1382 1384 1387 1393 1397 1399 1404 1410 1415 1419 1424 1428 1432 1439 1444 1449 1455 1459 1463 1465 1468 1472 1478 1482 1484 1484 1485 1487 1489 1492 1494 1496 1498 1500 1501 1502 1504 1507 1510 1513 1515 1516 1519 1522 1524 1524 1526 1527 1529 1531 1532 1535 1537 1538 1539 1540 1541
1435 1431 1426 1420 1418 1419 1420 1417 1409 1403 1400 1399 1396 1397 1407 1413 1410 1408 1403 1401 1406 1398 1386 1387 1389 1394 1400 1390 1379 1377 1377 1380 1386 1390 1394 1400 1407 1412 1416 1422 1426 1430 1436 1440 1444 1450 1454 1457 1461 1465 1469 1475 1481 1482 1482 1483 1485 1487 1490 1491 1493 1495 1497 1499 1500 1502 1505 1508 1512 1514 1515 1518 1521 1523 1524 1526 1527 1528 1529 1531 1532 1535 1536 1537 1538 1539
1434 1427 1423 1421 1418 1415 1419 1419 1411 1402 1397 1396 1394 1396 1404 1408 1415 1420 1411 1404 1403 1393 1380 1381 1390 1394 1389 1381 1377 1373 1370 1374 1380 1384 1389 1396 1404 1410 1413 1419 1423 1427 1433 1437 1441 1445 1449 1453 1458 1462 1466 1473 1478 1480 1479 1481 1483 1485 1487 1489 1491 1494 1495 1497 1498 1500 1503 1506 1510 1512 1513 1516 1518 1521 1523 1524 1525 1526 1527 1529 1531 1533 1535 1536 1537 1537
1430 1428 1421 1420 1417 1413 1414 1412 1406 1399 1396 1393 1388 1390 1396 1397 1407 1414 1404 1399 1401 1393 1382 1382 1391 1393 1385 1378 1373 1369 1366 1368 1375 1381 1386 1393 1401 1407 1411 1416 1420 1425 1429 1434 1438 1443 1447 1451 1457 1461 1466 1471 1476 1476 1476 1478 1480 1482 1485 1486 1489 1491 1493 1495 1497 1499 1502 1505 1508 1510 1512 1514 1517 1519 1521 1523 1524 1525 1526 1527 1529 1532 1533 1534 1535 1536
1427 1422 1411 1413 1414 1411 1412 1409 1404 1402 1399 1392 1386 1389 1392 1387 1388 1393 1392 1389 1392 1394 1390 1386 1386 1380 1373 1367 1365 1366 1365 1364 1371 1378 1383 1391 1398 1403 1408 1412 1418 1422 1426 1431 1436 1441 1446 1451 1456 1460 1465 1471 1473 1473 1473 1475 1478 1480 1482 1485 1487 1489 1491 1493 1496 1499 1501 1504 1507 1509 1511 1513 1516 1518 1520 1521 1522 1523 1525 1526 1528 1530 1532 1533 1534 1535
1428 1417 1404 1408 1413 1409 1410 1408 1404 1405 1400 1391 1389 1391 1387 1378 1377 1387 1392 1384 1386 1401 1398 1384 1382 1377 1371 1369 1363 1364 1366 1365 1371 1379 1382 1388 1394 1400 1405 1410 1416 1420 1424 1429 1434 1439 1444 1450 1456 1459 1463 1468 1469 1469 1470 1473 1476 1478 1481 1483 1486 1488 1490 1492 1495 1498 1500 1503 1506 1508 1510 1512 1514 1516 1518 1520 1521 1522 1524 1525 1527 1529 1530 1531 1533 1533
1424 1418 1403 1405 1411 1408 1407 1407 1403 1401 1396 1393 1394 1391 1384 1379 1377 1383 1396 1396 1398 1408 1397 1382 1384 1381 1379 1380 1369 1365 1369 1369 1373 1378 1380 1385 1390 1397 1403 1408 1414 1418 1423 1428 1432 1438 1443 1449 1454 1457 1460 1464 1466 1466 1468 1472 1476 1478 1479 1481 1484 1486 1488 1491 1495 1497 1499 1502 1505 1507 1509 1511 1513 1515 1517 1518 1520 1521 1523 1524 1526 1527 1529 1530 1531 1531
1425 1424 1406 1398 1406 1406 1406 1409 1406 1399 1391 1388 1389 1384 1382 1388 1388 1386 1396 1403 1404 1408 1398 1383 1379 1375 1376 1379 1372 1369 1370 1370 1373 1376 1377 1382 1387 1395 1401 1407 1412 1417 1422 1428 1432 1437 1442 1448 1452 1455 1458 1462 1464 1465 1468 1472 1475 1477 1478 1480 1483 1486 1488 1491 1494 1496 1498 1501 1504 1505 1507 1510 1512 1514 1515 1517 1519 1520 1522 1524 1525 1527 1527 1528 1529 1530
1423 1426 1412 1397 1400 1407 1408 1409 1407 1401 1390 1382 1380 1377 1376 1381 1383 1382 1386 1389 1393 1402 1399 1387 1383 1378 1370 1366 1366 1368 1367 1367 1373 1376 1377 1380 1385 1393 1399 1404 1410 1415 1421 1426 1431 1436 1440 1445 1449 1451 1455 1459 1461 1463 1467 1471 1474 1474 1477 1480 1483 1485 1488 1491 1493 1495 1497 1500 1503 1504 1506 1509 1511 1512 1514 1516 1518 1520 1521 1523 1524 1526 1527 1527 1529 1530
1422 1427 1419 1400 1397 1406 1409 1405 1401 1397 1390 1383 1379 1377 1376 1373 1371 1374 1377 1373 1377 1392 1395 1392 1393 1381 1360 1353 1360 1363 1364 1367 1372 1377 1378 1379 1383 1391 1397 1402 1408 1414 1420 1425 1430 1434 1438 1443 1446 1450 1454 1458 1460 1462 1466 1470 1472 1473 1476 1479 1482 1484 1487 1490 1492 1494 1497 1499 1501 1503 1505 1508 1509 1511 1513 1515 1517 1519 1521 1522 1524 1525 1526 1527 1528 1530
1420 1428 1425 1409 1405 1409 1405 1397 1394 1390 1385 1381 1378 1374 1372 1371 1369 1377 1383 1372 1367 1379 1384 1387 1394 1378 1352 1348 1356 1359 1363 1368 1371 1375 1377 1378 1383 1390 1395 1400 1406 1412 1419 1424 1429 1433 1437 1440 1444 1449 1454 1457 1459 1461 1465 1469 1471 1472 1475 1477 1480 1483 1486 1488 1490 1493 1495 1498 1500 1502 1504 1506 1508 1510 1512 1514 1516 1518 1520 1522 1523 1525 1525 1526 1528 1528
1415 1428 1427 1411 1405 1406 1400 1393 1393 1390 1382 1377 1375 1369 1364 1366 1368 1375 1384 1376 1367 1370 1369 1374 1387 1376 1353 1348 1353 1357 1362 1366 1369 1373 1375 1378 1382 1388 1393 1399 1405 1412 1418 1423 1427 1431 1435 1439 1443 1448 1453 1455 1456 1459 1463 1466 1469 1471 1473 1476 1479 1482 1485 1487 1489 1492 1494 1496 1498 1501 1503 1505 1506 1509 1512 1514 1516 1518 1520 1521 1523 1524 1524 1525 1527 1528
1416 1425 1424 1410 1402 1401 1397 1395 1393 1388 1382 1377 1374 1367 1363 1365 1364 1363 1367 1367 1370 1371 1366 1375 1389 1376 1354 1350 1354 1357 1361 1365 1368 1371 1374 1377 1381 1386 1392 1398 1404 1412 1418 1421 1426 1431 1434 1438 1443 1448 1452 1453 1455 1458 1461 1464 1467 1470 1473 1475 1478 1481 1484 1486 1488 1491 1493 1495 1498 1499 1501 1503 1505 1508 1511 1513 1515 1517 1519 1521 1522 1523 1524 1525 1527 1528
1418 1421 1421 1416 1414 1412 1408 1405 1400 1391 1384 1379 1374 1369 1365 1362 1360 1361 1360 1364 1373 1369 1361 1375 1388 1371 1353 1352 1355 1357 1363 1366 1367 1371 1374 1377 1381 1387 1393 1398 1404 1411 1417 1421 1426 1430 1434 1438 1443 1448 1451 1452 1453 1456 1459 1463 1465 1468 1472 1474 1477 1480 1483 1485 1487 1490 1492 1494 1496 1498 1501 1503 1505 1507 1510 1512 1514 1516 1518 1520 1522 1523 1524 1525 1527 1528
1418 1424 1423 1418 1419 1421 1419 1414 1405 1394 1387 1383 1375 1368 1364 1360 1361 1365 1366 1372 1378 1367 1356 1367 1375 1365 1355 1355 1356 1359 1365 1368 1369 1372 1375 1377 1382 1388 1393 1399 1405 1410 1415 1419 1424 1429 1433 1437 1442 1447 1450 1450 1451 1453 1457 1461 1464 1467 1471 1473 1476 1480 1482 1484 1486 1489 1491 1493 1495 1497 1500 1502 1504 1506 1509 1511 1514 1516 1518 1520 1522 1523 1524 1525 1526 1528
1414 1419 1417 1410 1406 1406 1408 1405 1396 1387 1387 1386 1377 1369 1365 1362 1361 1363 1370 1375 1373 1366 1363 1362 1362 1365 1365 1362 1362 1363 1365 1369 1370 1372 1375 1378 1383 1388 1393 1399 1405 1410 1415 1419 1423 1428 1431 1435 1441 1446 1448 1449 1449 1452 1455 1459 1463 1466 1469 1472 1476 1479 1480 1482 1485 1487 1489 1491 1494 1496 1498 1501 1503 1505 1508 1511 1513 1515 1518 1519 1521 1523 1524 1525 1526 1528
1413 1413 1407 1404 1400 1398 1398 1395 1389 1384 1383 1382 1377 1371 1367 1362 1360 1365 1373 1371 1362 1369 1378 1368 1361 1370 1372 1366 1367 1366 1365 1368 1370 1372 1375 1378 1383 1388 1393 1399 1405 1410 1414 1418 1422 1426 1429 1433 1439 1444 1447 1447 1448 1451 1454 1458 1461 1465 1468 1471 1474 1477 1478 1481 1484 1486 1487 1490 1492 1495 1497 1500 1502 1504 1507 1510 1512 1515 1517 1519 1521 1522 1523 1525 1526 1528
1418 1415 1405 1403 1405 1403 1399 1392 1386 1383 1378 1374 1374 1372 1367 1363 1364 1369 1372 1364 1360 1373 1380 1370 1367 1374 1372 1369 1371 1368 1366 1367 1368 1371 1375 1378 1383 1389 1394 1399 1405 1410 1414 1417 1421 1424 1428 1432 1437 1441 1444 1444 1446 1450 1453 1457 1460 1463 1467 1470 1472 1474 1477 1480 1482 1484 1486 1488 1491 1493 1496 1499 1501 1503 1506 1509 1511 1514 1516 1518 1520 1521 1523 1525 1526 1527
1417 1415 1409 1407 1406 1402 1398 1391 1383 1379 1376 1373 1373 1371 1367 1365 1366 1368 1368 1364 1366 1373 1373 1370 1376 1379 1374 1374 1375 1371 1368 1367 1368 1372 1375 1378 1384 1389 1394 1400 1404 1408 1412 1415 1420 1424 1428 1431 1436 1440 1441 1441 1444 1447 1451 1455 1458 1461 1465 1468 1470 1473 1475 1479 1481 1483 1486 1488 1490 1493 1496 1497 1499 1502 1505 1508 1510 1513 1515 1517 1519 1520 1522 1524 1525 1527
1416 1413 1408 1406 1405 1402 1398 1393 1386 1379 1376 1376 1375 1371 1368 1368 1366 1368 1373 1371 1372 1376 1376 1376 1383 1384 1380 1377 1375 1374 1372 1370 1371 1375 1378 1382 1386 1390 1395 1400 1403 1407 1410 1414 1419 1424 1428 1432 1435 1437 1438 1439 1443 1445 1449 1453 1456 1460 1463 1466 1469 1472 1474 1477 1480 1482 1485 1487 1490 1492 1494 1496 1498 1501 1504 1507 1509 1512 1514 1516 1518 1520 1522 1523 1524 1526
1418 1413 1406 1404 1407 1402 1396 1395 1391 1381 1376 1379 1379 1374 1372 1373 1369 1370 1376 1377 1375 1378 1380 1383 1388 1388 1383 1381 1379 1378 1376 1373 1374 1377 1381 1385 1388 1391 1395 1399 1403 1407 1410 1413 1418 1422 1427 1431 1432 1434 1435 1438 1441 1444 1448 1451 1455 1459 1461 1464 1468 1470 1473 1476 1478 1481 1484 1487 1489 1491 1493 1495 1498 1501 1504 1506 1509 1511 1513 1515 1517 1519 1521 1522 1524 1525
1418 1419 1415 1409 1406 1399 1393 1393 1389 1383 1385 1389 1382 1374 1374 1375 1372 1370 1374 1377 1376 1376 1381 1388 1391 1386 1382 1384 1385 1382 1380 1378 1377 1378 1383 1386 1388 1391 1395 1397 1402 1406 1409 1413 1417 1421 1426 1429 1430 1432 1434 1436 1439 1443 1447 1450 1454 1457 1460 1462 1466 1469 1472 1475 1478 1481 1484 1486 1488 1490 1492 1495 1497 1500 1503 1505 1508 1510 1512 1515 1517 1518 1520 1521 1523 1524
1417 1420 1418 1410 1403 1396 1388 1384 1387 1396 1402 1393 1376 1370 1372 1373 1373 1374 1376 1377 1376 1375 1378 1384 1386 1383 1383 1386 1387 1386 1385 1383 1380 1381 1384 1386 1387 1390 1393 1396 1401 1404 1408 1413 1416 1421 1425 1428 1430 1431 1433 1436 1440 1444 1448 1451 1454 1457 1459 1462 1466 1469 1472 1475 1478 1481 1484 1485 1487 1489 1491 1494 1496 1499 1501 1504 1506 1509 1511 1514 1516 1517 1519 1520 1522 1523
1413 1417 1417 1409 1403 1395 1386 1386 1399 1408 1398 1379 1368 1369 1369 1370 1372 1375 1375 1374 1373 1374 1376 1378 1381 1382 1384 1385 1385 1386 1387 1385 1384 1384 1385 1386 1388 1390 1393 1396 1400 1403 1407 1412 1416 1421 1425 1426 1428 1430 1433 1437 1440 1444 1447 1451 1454 1457 1459 1462 1466 1469 1471 1475 1478 1481 1483 1485 1487 1488 1490 1492 1495 1497 1500 1503 1506 1508 1511 1513 1515 1516 1518 1519 1521 1522
1409 1414 1415 1408 1400 1396 1393 1397 1403 1397 1380 1370 1370 1370 1369 1371 1374 1377 1379 1376 1372 1374 1377 1377 1377 1379 1382 1384 1385 1386 1386 1387 1387 1386 1387 1388 1390 1392 1394 1397 1400 1403 1407 1411 1415 1419 1423 1425 1427 1430 1434 1437 1440 1443 1447 1450 1453 1456 1459 1462 1465 1468 1471 1475 1477 1480 1482 1484 1486 1487 1489 1491 1493 1496 1499 1502 1505 1507 1510 1512 1514 1515 1517 1518 1520 1521
1404 1412 1418 1414 1403 1397 1397 1396 1394 1389 1381 1376 1373 1368 1369 1372 1373 1377 1384 1381 1373 1373 1376 1375 1375 1377 1380 1383 1385 1386 1387 1389 1389 1389 1389 1390 1391 1393 1396 1398 1401 1405 1407 1411 1415 1419 1422 1425 1428 1431 1434 1437 1440 1443 1446 1449 1453 1455 1458 1462 1464 1467 1471 1474 1476 1478 1480 1483 1485 1486 1488 1490 1492 1495 1498 1500 1503 1506 1508 1510 1512 1514 1515 1517 1518 1520
1400 1408 1417 1416 1404 1393 1393 1396 1399 1401 1394 1381 1372 1367 1367 1370 1370 1375 1384 1384 1375 1372 1371 1371 1375 1379 1380 1384 1387 1387 1388 1392 1394 1393 1393 1392 1392 1395 1397 1400 1402 1406 1409 1411 1414 1418 1422 1425 1428 1431 1434 1438 1440 1443 1446 1449 1452 1454 1457 1461 1463 1467 1470 1473 1475 1477 1479 1482 1484 1485 1487 1489 1491 1494 1496 1498 1501 1504 1506 1509 1511 1512 1514 1515 1517 1519
1398 1401 1405 1408 1402 1394 1394 1396 1400 1400 1391 1377 1369 1366 1368 1370 1370 1376 1389 1389 1376 1368 1370 1373 1378 1380 1381 1385 1388 1387 1391 1396 1397 1395 1394 1394 1395 1396 1398 1401 1403 1407 1410 1411 1414 1418 1422 1425 1428 1431 1434 1437 1440 1442 1446 1449 1451 1454 1457 1460 1463 1467 1469 1472 1474 1476 1479 1482 1483 1484 1486 1488 1490 1492 1494 1497 1499 1502 1505 1507 1509 1511 1512 1514 1517 1518
1402 1402 1403 1406 1403 1396 1395 1398 1398 1394 1386 1377 1370 1366 1368 1370 1370 1382 1400 1395 1373 1367 1373 1376 1379 1381 1382 1385 1388 1388 1391 1393 1392 1392 1394 1395 1395 1397 1399 1402 1404 1407 1410 1412 1415 1419 1422 1424 1428 1431 1434 1437 1439 1442 1446 1449 1451 1455 1457 1460 1463 1466 1468 1471 1474 1476 1478 1481 1482 1483 1484 1486 1488 1491 1493 1496 1499 1502 1504 1506 1508 1509 1511 1513 1516 1517
1410 1407 1404 1404 1399 1394 1395 1402 1405 1398 1386 1378 1373 1367 1367 1372 1378 1388 1397 1388 1373 1372 1376 1377 1379 1382 1383 1386 1388 1388 1389 1389 1388 1391 1394 1395 1396 1397 1399 1402 1405 1408 1410 1412 1415 1419 1421 1425 1428 1431 1434 1436 1438 1442 1446 1449 1451 1454 1457 1460 1463 1465 1468 1471 1473 1474 1476 1478 1480 1481 1483 1484 1487 1489 1493 1496 1499 1502 1504 1505 1506 1508 1510 1512 1514 1516
1410 1405 1399 1396 1396 1396 1395 1400 1410 1405 1388 1378 1376 1371 1371 1382 1390 1390 1386 1381 1379 1378 1378 1379 1381 1383 1385 1387 1387 1388 1389 1389 1389 1392 1395 1396 1397 1398 1400 1403 1405 1408 1410 1413 1416 1419 1422 1425 1428 1431 1433 1435 1438 1442 1445 1448 1451 1454 1457 1460 1462 1465 1467 1469 1471 1472 1474 1476 1478 1481 1482 1484 1487 1490 1493 1497 1499 1501 1502 1503 1504 1506 1508 1510 1511 1513
1408 1405 1402 1398 1398 1398 1394 1397 1410 1407 1388 1378 1379 1377 1378 1385 1388 1385 1382 1382 1383 1381 1380 1381 1383 1385 1387 1388 1388 1389 1390 1390 1392 1393 1394 1396 1397 1398 1400 1402 1404 1407 1409 1412 1416 1418 1421 1424 1427 1430 1432 1435 1438 1442 1445 1447 1451 1454 1457 1460 1463 1465 1466 1467 1469 1471 1472 1475 1477 1480 1482 1485 1487 1489 1491 1494 1496 1497 1499 1500 1503 1505 1506 1508 1509 1511
1407 1407 1408 1405 1400 1396 1393 1395 1399 1394 1383 1380 1382 1381 1382 1385 1384 1383 1383 1383 1383 1383 1383 1384 1386 1388 1389 1390 1391 1392 1392 1392 1394 1395 1395 1397 1398 1399 1401 1402 1404 1407 1410 1412 1416 1418 1421 1424 1427 1429 1432 1435 1438 1441 1444 1447 1449 1452 1456 1459 1462 1463 1465 1466 1468 1470 1472 1474 1476 1478 1481 1484 1485 1486 1489 1491 1493 1495 1497 1499 1501 1503 1504 1506 1507 1509
1409 1407 1407 1406 1401 1397 1396 1396 1395 1391 1385 1384 1384 1382 1383 1386 1385 1384 1385 1384 1385 1387 1386 1387 1389 1391 1391 1392 1394 1394 1394 1395 1396 1396 1397 1397 1398 1400 1404 1405 1406 1408 1411 1414 1416 1418 1421 1424 1426 1429 1432 1435 1438 1441 1444 1446 1448 1451 1455 1458 1460 1461 1463 1465 1467 1468 1470 1472 1474 1477 1479 1481 1483 1485 1487 1490 1492 1494 1496 1498 1500 1501 1503 1504 1506 1507
1409 1406 1405 1405 1402 1400 1400 1398 1398 1396 1389 1385 1386 1386 1385 1387 1388 1387 1387 1387 1388 1390 1389 1391 1394 1394 1393 1393 1394 1396 1398 1399 1398 1399 1401 1401 1399 1401 1406 1410 1410 1411 1414 1416 1417 1419 1422 1424 1427 1429 1433 1436 1439 1441 1444 1446 1448 1451 1454 1456 1458 1460 1461 1463 1465 1467 1468 1471 1472 1474 1476 1478 1481 1484 1486 1488 1490 1493 1496 1497 1498 1500 1501 1503 1504 1506
1407 1405 1405 1406 1403 1403 1406 1404 1401 1399 1393 1388 1389 1388 1388 1391 1392 1391 1391 1391 1391 1392 1392 1394 1397 1398 1396 1395 1396 1398 1400 1401 1402 1403 1404 1407 1406 1405 1408 1414 1415 1414 1416 1417 1419 1421 1422 1424 1427 1430 1433 1436 1439 1441 1443 1446 1448 1451 1453 1455 1456 1458 1459 1461 1463 1465 1467 1468 1470 1472 1474 1477 1480 1482 1485 1487 1488 1491 1494 1496 1497 1499 1500 1501 1502 1503
1406 1404 1407 1410 1407 1406 1409 1407 1403 1401 1396 1393 1393 1393 1393 1395 1395 1394 1395 1395 1394 1395 1397 1398 1400 1399 1399 1399 1399 1400 1401 1402 1404 1404 1405 1408 1410 1409 1411 1416 1417 1416 1418 1419 1420 1422 1423 1425 1428 1431 1433 1436 1439 1441 1444 1446 1448 1451 1452 1453 1455 1456 1457 1459 1461 1464 1465 1467 1469 1471 1473 1476 1479 1481 1483 1485 1487 1489 1492 1493 1495 1496 1497 1498 1500 1501
1406 1406 1409 1412 1411 1409 1409 1408 1405 1403 1400 1398 1398 1398 1397 1397 1397 1397 1397 1397 1397 1399 1400 1401 1401 1400 1400 1401 1402 1402 1403 1404 1404 1405 1407 1411 1414 1415 1417 1419 1419 1418 1419 1420 1422 1423 1425 1426 1429 1431 1434 1437 1439 1442 1444 1446 1448 1451 1452 1453 1454 1455 1456 1458 1460 1462 1464 1466 1468 1470 1473 1476 1478 1480 1482 1484 1486 1488 1490 1491 1493 1494 1495 1497 1498 1500
1410 1411 1413 1414 1413 1413 1412 1410 1409 1409 1408 1405 1403 1401 1401 1401 1401 1400 1400 1399 1400 1402 1402 1401 1401 1401 1402 1403 1404 1405 1405 1406 1407 1408 1411 1415 1418 1420 1421 1422 1422 1420 1420 1421 1423 1424 1426 1427 1429 1432 1435 1438 1440 1442 1444 1446 1448 1450 1451 1453 1454 1454 1455 1457 1459 1461 1463 1465 1468 1470 1472 1474 1477 1479 1481 1483 1484 1486 1488 1489 1492 1493 1495 1496 1498 1500
1412 1413 1414 1415 1415 1414 1412 1410 1411 1412 1412 1410 1407 1405 1405 1405 1404 1404 1405 1405 1405 1405 1405 1404 1404 1403 1404 1405 1406 1407 1407 1408 1409 1410 1412 1415 1418 1419 1420 1421 1420 1420 1421 1422 1423 1425 1427 1429 1430 1432 1435 1438 1440 1442 1444 1446 1448 1449 1450 1452 1453 1454 1455 1456 1457 1460 1462 1464 1466 1468 1470 1473 1475 1477 1479 1481 1483 1484 1485 1488 1490 1493 1494 1496 1497 1498